This demonstration page uses our WeatherBlox Daily Observations layout. Learn more.

Left ArrowRight Arrow

44.89941, -97.11507

Hourly Observations for June 23, 2016

Temp ( °F °C ) Dew Point ( °F °C ) Humidity (%) Winds ( mph kmh ) Pressure ( in mb ) Visibility ( mi km ) Precip ( " mm )
12:53 am 00:53 Clear 60 15.6 54 12.2 80 80 NNW 16 26 29.96 1015 10 16 0.00 0.00
1:53 am 01:53 Mostly Clear 59 15 54 12.2 83 83 NNW 15 24 29.97 1015 10 16 0.00 0.00
2:08 am 02:08 Mostly Cloudy 60 15.6 54 12.2 80 80 N 13 20 29.97 1015 10 16 0.00 0.00
2:29 am 02:29 Cloudy 60 15.6 55 12.8 84 84 N 8 13 29.97 1015 10 16 0.00 0.00
2:53 am 02:53 Cloudy 60 15.6 54 12.2 80 80 N 20 31 29.98 1015 10 16 0.00 0.00
3:07 am 03:07 Cloudy 60 15.6 53 11.7 78 78 N 14 22 29.97 1015 10 16 0.00 0.00
3:53 am 03:53 Cloudy 58 14.4 53 11.7 84 84 N 9 15 29.99 1016 10 16 0.00 0.00
4:33 am 04:33 Cloudy 58 14.4 54 12.2 87 87 N 12 19 30.00 1016 10 16 0.00 0.00
4:53 am 04:53 Cloudy 59 15 53 11.7 81 81 N 16 26 30.01 1016 10 16 0.00 0.00
5:29 am 05:29 Mostly Cloudy 58 14.4 53 11.7 84 84 N 13 20 30.00 1016 10 16 0.00 0.00
5:53 am 05:53 Cloudy 58 14.4 53 11.7 84 84 N 14 22 30.01 1016 10 16 0.00 0.00
6:07 am 06:07 Cloudy 58 14.4 53 11.7 84 84 N 14 22 30.00 1016 10 16 0.00 0.00
6:53 am 06:53 Cloudy 58 14.4 53 11.7 84 84 N 9 15 30.04 1017 10 16 0.00 0.00
7:53 am 07:53 Cloudy 61 16.1 54 12.2 78 78 NE 9 15 30.07 1018 10 16 0.00 0.00
8:53 am 08:53 Mostly Cloudy 65 18.3 54 12.2 68 68 NNE 13 20 30.08 1019 10 16 0.00 0.00
9:03 am 09:03 Mostly Cloudy 65 18.3 54 12.2 68 68 NE 13 20 30.03 1017 10 16 0.00 0.00
9:13 am 09:13 Partly Cloudy 64 17.8 53 11.7 68 68 NE 10 17 30.03 1017 10 16 0.00 0.00
9:53 am 09:53 Mostly Sunny 66 18.9 53 11.7 63 63 ENE 14 22 30.09 1019 10 16 0.00 0.00
10:53 am 10:53 Sunny 70 21.1 49 9.4 47 47 NE 7 11 30.10 1019 10 16 0.00 0.00
11:53 am 11:53 Sunny 72 22.2 50 10 46 46 E 7 11 30.09 1019 10 16 0.00 0.00
12:53 pm 12:53 Partly Cloudy 74 23.3 49 9.4 41 41 Calm 30.09 1019 10 16 0.00 0.00
1:53 pm 13:53 Sunny 74 23.3 48 8.9 40 40 Calm 30.07 1018 10 16 0.00 0.00
2:53 pm 14:53 Sunny 78 25.6 49 9.4 36 36 NE 8 13 30.06 1018 10 16 0.00 0.00
3:53 pm 15:53 Sunny 78 25.6 49 9.4 36 36 VRB 6 9 30.04 1017 10 16 0.00 0.00
4:53 pm 16:53 Sunny 77 25 49 9.4 37 37 WSW 3 6 30.03 1017 10 16 0.00 0.00
5:53 pm 17:53 Sunny 79 26.1 50 10 36 36 E 8 13 30.02 1017 10 16 0.00 0.00
6:53 pm 18:53 Sunny 77 25 50 10 39 39 ESE 7 11 30.01 1016 10 16 0.00 0.00
7:53 pm 19:53 Sunny 76 24.4 49 9.4 39 39 VRB 6 9 30.01 1016 10 16 0.00 0.00
8:53 pm 20:53 Sunny 73 22.8 49 9.4 43 43 ESE 7 11 30.01 1016 10 16 0.00 0.00
9:53 pm 21:53 Clear 71 21.7 49 9.4 46 46 SE 6 9 30.01 1016 10 16 0.00 0.00
10:53 pm 22:53 Clear 67 19.4 51 10.6 57 57 SE 6 9 30.02 1017 10 16 0.00 0.00
11:53 pm 23:53 Clear 66 18.9 52 11.1 61 61 SE 6 9 30.01 1016 10 16 0.00 0.00

Powered by AerisWeather